Home   Weather   Township of Paris   Past weeks
Flag for USA

Past Weather in Township of Paris, Illinois, USA — Yesterday and Last 2 Weeks

Now
54 °F

Fog.


Feels Like: 51 °F
Forecast: 54 / 44 °F
Wind: 10 mph from Southwest

Location: Terre Haute International Airport - Hulman Field

Current Time: Nov 21, 2019 at 5:23:10 pm

Latest Report: Nov 21, 2019 at 4:53 pm


Visibility: 4 mi

Pressure: 29.93 "Hg

Humidity: 97%

Dew Point: 53 °F

Location of Township of ParisLocation

Past Weather in Township of Paris — Graph

°F

Township of Paris Temperature Yesterday

Maximum temperature yesterday: 48 °F (at 12:53 pm)
Minimum temperature yesterday: 40 °F (at 12:53 am)
Average temperature yesterday: 43 °F

High & Low Weather Summary for the Past Weeks

 TemperatureHumidityPressure
High60 °F (Nov 10, 1:53 pm)97% (Nov 6, 9:53 pm)30.55 "Hg (Nov 6, 9:53 pm)
Low5 °F (Nov 12, 11:53 pm)40% (Nov 8, 1:53 pm)29.76 "Hg (Nov 19, 3:53 am)
Average35 °F79%30.17 "Hg
* Reported Nov 6 4:53 pm — Nov 21 4:27 pm, Township of Paris. Weather by CustomWeather, © 2019

Note: Actual official high and low records may vary slightly from our data, if they occured in-between our weather recording intervals... More about our weather records

Advertising

Township of Paris Weather History for the Previous 24 Hours

Scroll right to see more
 ConditionsComfort  
Time TempWeatherWind HumidityBarometerVisibility
4:27 pm
Thu, Nov 21
54 °FFog.7 mph93%29.92 "Hg2 mi
4:13 pm54 °FFog.9 mph93%29.92 "Hg1 mi
3:53 pm54 °FLight rain. Fog.12 mph93%29.91 "Hg2 mi
2:53 pm53 °FFog.10 mph93%29.89 "Hg3 mi
2:35 pm53 °FFog.10 mph93%29.89 "Hg3 mi
1:53 pm53 °FFog.10 mph89%29.90 "Hg4 mi
12:53 pm52 °FOvercast.12 mph89%29.89 "Hg10 mi
11:53 am51 °FOvercast.13 mph89%29.92 "Hg10 mi
10:53 am49 °FMostly cloudy.15 mph93%29.95 "Hg10 mi
10:13 am49 °FLight rain. Mostly cloudy.17 mph90%29.97 "Hg7 mi
9:44 am49 °FLight rain. Fog.18 mph90%29.98 "Hg2 mi
9:30 am50 °FRain. Mostly cloudy.17 mph83%29.98 "Hg2 mi
8:53 am51 °FLight rain. Mostly cloudy.16 mph74%29.98 "Hg8 mi
7:53 am51 °FLight rain. Overcast.15 mph66%29.98 "Hg10 mi
6:53 am52 °FMostly cloudy.17 mph59%29.99 "Hg10 mi
5:53 am49 °FOvercast.13 mph69%30.01 "Hg10 mi
4:53 am46 °FPassing clouds.6 mph79%30.04 "Hg10 mi
3:53 am46 °FPassing clouds.10 mph77%30.06 "Hg10 mi
2:53 am44 °FPassing clouds.7 mph85%30.09 "Hg10 mi
1:53 am44 °FClear.9 mph82%30.10 "Hg10 mi
12:53 am43 °FClear.9 mph86%30.12 "Hg9 mi
11:53 pm
Wed, Nov 20
42 °FClear.10 mph89%30.14 "Hg8 mi
10:53 pm42 °FClear.10 mph85%30.16 "Hg8 mi
9:53 pm41 °FClear.7 mph89%30.17 "Hg10 mi
8:53 pm41 °FClear.5 mph89%30.20 "Hg10 mi
7:53 pm41 °FClear.9 mph89%30.21 "Hg10 mi
6:53 pm41 °FClear.8 mph89%30.22 "Hg10 mi
5:53 pm41 °FPassing clouds.6 mph86%30.22 "Hg10 mi
Weather by CustomWeather, © 2019

See weather overview